Location: Góry Miechowskie
(50.3599°N, 20.1803°E)
Time: 15:49:18
(UTC+00:00)

Courier 1B Rocket - Pass Details

Date: 18 September 2024
Orbit: 920 x 1201 km, 28.3° (Epoch: 11 October)

Event Time Altitude Azimuth Distance (km) Brightness Sun altitude
Rises 15:00:28 0° 225° (SW) 3,670 9.2 15.7°
Reaches altitude 10° 15:06:38 10° 182° (S) 2,811 7.7 14.8°
Maximum altitude 15:07:04 10° 178° (S) 2,813 7.7 14.7°
Drops below altitude 10° 15:07:31 10° 175° (S) 2,825 7.6 14.7°
Sets 15:13:59 0° 133° (SE) 3,881 7.8 13.7°
